This demonstration page uses our WeatherBlox Daily Observations layout. Learn more.

Left ArrowRight Arrow

39.92423, -83.80882

Hourly Observations for March 26, 2018

Temp ( °F °C ) Dew Point ( °F °C ) Humidity (%) Winds ( mph kmh ) Pressure ( in mb ) Visibility ( mi km ) Precip ( " mm )
12:56 am 00:56 Clear 32 undefined 10 -12.2 40 40 E 14 22 30.32 1027 10 16 N/A
1:56 am 01:56 Clear 32 undefined 11 -11.7 41 41 E 15 24 30.31 1027 10 16 N/A
2:56 am 02:56 Clear 32 undefined 13 -10.6 45 45 E 16 26 30.31 1026 10 16 N/A
4:56 am 04:56 Clear 32 undefined 17 -8.3 54 54 ESE 18 30 30.30 1026 10 16 N/A
5:56 am 05:56 Clear 32 undefined 19 -7.2 59 59 E 17 28 30.31 1026 10 16 N/A
6:56 am 06:56 Clear 32 undefined 19 -7.2 59 59 E 17 28 30.34 1027 10 16 N/A
7:56 am 07:56 Sunny 33 0.6 19 -7.2 56 56 ESE 17 28 30.36 1028 10 16 N/A
8:56 am 08:56 Sunny 36 2.2 20 -6.7 52 52 ESE 17 28 30.38 1029 10 16 N/A
9:56 am 09:56 Sunny 41 5 22 -5.6 47 47 ESE 20 31 30.38 1029 10 16 N/A
10:56 am 10:56 Mostly Cloudy 44 6.7 24 -4.4 45 45 ESE 20 31 30.37 1029 10 16 N/A
11:38 am 11:38 Cloudy 46 8 27 -3 46 46 ESE 18 30 30.36 1028 10 16 N/A
11:56 am 11:56 Cloudy 47 8.3 26 -3.3 44 44 SSE 17 28 30.39 1029 10 16 N/A
12:04 pm 12:04 Cloudy 48 9 27 -3 43 43 SSE 18 30 30.36 1028 10 16 N/A
12:56 pm 12:56 Cloudy 46 7.8 27 -2.8 47 47 SSE 16 26 30.37 1029 10 16 N/A
1:56 pm 13:56 Cloudy 47 8.3 29 -1.7 50 50 SE 17 28 30.37 1028 10 16 N/A
2:56 pm 14:56 Cloudy 47 8.3 29 -1.7 50 50 SE 18 30 30.35 1028 10 16 N/A
3:56 pm 15:56 Cloudy 47 8.3 29 -1.7 50 50 SE 17 28 30.33 1027 10 16 N/A
4:45 pm 16:45 Cloudy 48 9 28 -2 46 46 ESE 17 28 30.33 1027 10 16 N/A
4:56 pm 16:56 Cloudy 49 9.4 29 -1.7 46 46 ESE 20 31 30.31 1027 10 16 N/A
5:56 pm 17:56 Mostly Cloudy 49 9.4 29 -1.7 46 46 SE 17 28 30.31 1027 10 16 N/A
6:56 pm 18:56 Mostly Sunny 49 9.4 29 -1.7 46 46 ESE 14 22 30.30 1026 10 16 N/A
7:56 pm 19:56 Cloudy 48 8.9 29 -1.7 48 48 ESE 12 19 30.29 1026 10 16 N/A
8:56 pm 20:56 Clear 46 7.8 28 -2.2 50 50 SE 12 19 30.29 1026 10 16 N/A
9:56 pm 21:56 Mostly Cloudy 47 8.3 27 -2.8 46 46 SE 15 24 30.29 1026 10 16 N/A
10:56 pm 22:56 Cloudy with Light Rain 45 7.2 31 -0.6 58 58 SE 14 22 30.26 1025 10 16 N/A
11:56 pm 23:56 Cloudy with Light Rain 45 7.2 33 0.6 63 63 SE 16 26 30.23 1024 10 16 N/A

Powered by AerisWeather